This demonstration page uses our WeatherBlox Daily Observations layout. Learn more.

Left ArrowRight Arrow

44.8408, -93.29828

Hourly Observations for April 8, 2017

Temp ( °F °C ) Dew Point ( °F °C ) Humidity (%) Winds ( mph kmh ) Pressure ( in mb ) Visibility ( mi km ) Precip ( " mm )
12:53 am 00:53 Mostly Clear 49 9.4 27 -2.8 43 43 SSE 12 19 29.86 1011 10 16 0.00 0.00
1:53 am 01:53 Clear 48 8.9 27 -2.8 44 44 S 9 15 29.84 1010 10 16 0.00 0.00
2:53 am 02:53 Mostly Clear 47 8.3 28 -2.2 48 48 S 9 15 29.81 1010 10 16 0.00 0.00
3:53 am 03:53 Mostly Clear 46 7.8 28 -2.2 50 50 SSE 8 13 29.80 1009 10 16 0.00 0.00
4:53 am 04:53 Mostly Clear 45 7.2 29 -1.7 54 54 SE 8 13 29.78 1009 10 16 0.00 0.00
5:53 am 05:53 Partly Cloudy 45 7.2 30 -1.1 56 56 SE 12 19 29.75 1007 10 16 0.00 0.00
6:53 am 06:53 Partly Cloudy 45 7.2 31 -0.6 58 58 SE 9 15 29.74 1007 10 16 0.00 0.00
7:53 am 07:53 Mostly Cloudy 47 8.3 31 -0.6 54 54 SSE 9 15 29.72 1007 10 16 0.00 0.00
8:53 am 08:53 Mostly Cloudy 50 10 31 -0.6 48 48 SSE 12 19 29.71 1006 10 16 0.00 0.00
9:53 am 09:53 Mostly Cloudy 54 12.2 32 0 43 43 S 12 19 29.69 1005 10 16 0.00 0.00
10:53 am 10:53 Mostly Cloudy 60 15.6 36 2.2 41 41 S 15 24 29.65 1004 10 16 0.00 0.00
11:53 am 11:53 Mostly Cloudy 63 17.2 37 2.8 38 38 S 16 26 29.64 1004 10 16 0.00 0.00
12:53 pm 12:53 Mostly Cloudy 64 17.8 39 3.9 40 40 S 18 30 29.60 1003 10 16 0.00 0.00
1:53 pm 13:53 Cloudy 66 18.9 41 5 40 40 S 16 26 29.59 1002 10 16 0.00 0.00
2:53 pm 14:53 Cloudy 67 19.4 42 5.6 41 41 S 12 19 29.59 1002 10 16 0.00 0.00
3:53 pm 15:53 Mostly Cloudy 69 20.6 43 6.1 39 39 S 17 28 29.56 1001 10 16 0.00 0.00
4:53 pm 16:53 Mostly Cloudy 70 21.1 44 6.7 39 39 S 18 30 29.52 1000 10 16 0.00 0.00
5:53 pm 17:53 Mostly Cloudy 70 21.1 46 7.8 42 42 SSE 12 19 29.52 1000 10 16 0.00 0.00
6:53 pm 18:53 Mostly Cloudy 70 21.1 47 8.3 44 44 SSE 10 17 29.49 999 10 16 0.00 0.00
7:53 pm 19:53 Mostly Cloudy 71 21.7 47 8.3 42 42 S 10 17 29.49 999 10 16 0.00 0.00
8:53 pm 20:53 Mostly Cloudy 71 21.7 48 8.9 44 44 S 12 19 29.50 999 10 16 0.00 0.00
9:53 pm 21:53 Mostly Cloudy 69 20.6 49 9.4 49 49 S 10 17 29.50 999 10 16 0.00 0.00
10:53 pm 22:53 Mostly Cloudy 70 21.1 49 9.4 47 47 SW 14 22 29.51 999 10 16 0.00 0.00
11:53 pm 23:53 Mostly Cloudy 68 20 49 9.4 51 51 SW 13 20 29.52 1000 10 16 0.00 0.00

Powered by AerisWeather